Location: Budrione
(44.8167°N, 10.8667°E)
Time: 20:17:15
(UTC+00:00)

Daily predictions for brighter satellites

Satellite Brightness Start Highest point End
(mag) Time Altitude Azimuth Time Altitude Azimuth Time Altitude Azimuth
CZ-4C R/B 4.3 18:51:24 10° NNW 18:56:53 25° NNE 19:03:05 10° E
OE (NEXTSAT) 4.4 18:58:03 10° W 19:01:31 85° N 19:05:01 10° ENE
Sich 1 4.4 18:58:26 10° NNE 19:01:56 23° ENE 19:05:27 10° SE
MOS 1 4.4 19:02:27 10° SSE 19:08:02 66° ENE 19:13:41 10° N
Lacrosse 5 rocket 4.3 19:10:00 10° WSW 19:11:07 11° WSW 19:12:14 10° SW
MOS 1-B Rocket 4.4 19:05:16 10° NNE 19:12:58 73° ESE 19:19:26 10° S
SJ-6B 3.2 19:15:22 10° S 19:19:10 64° WSW 19:23:07 10° NNW
SL-08 ROCKET BODY 4.3 19:19:41 10° N 19:25:38 80° E 19:31:29 10° S
Terra 4.1 19:25:56 10° ENE 19:26:37 10° NE 19:27:18 10° NE
USA 290 3.5 19:25:13 10° N 19:28:04 27° ENE 19:30:10 14° ESE
Ariane Rocket 3.0 19:23:48 10° SSE 19:28:51 88° WSW 19:33:57 10° NNW
Cosmos 2263 Rocket 4.4 19:27:20 10° WSW 19:32:10 29° NW 19:37:02 10° N
FALCON 9 DEB 3.3 19:30:33 10° WNW 19:33:31 49° SW 19:35:41 16° SSE
IRIS 4.4 19:31:29 10° WSW 19:33:44 37° S 19:35:32 17° ESE
Cosmos 1606 2.8 19:30:51 10° SSW 19:34:36 77° W 19:38:24 10° N
CZ-2C R/B 4.4 19:31:23 10° NNE 19:35:25 33° E 19:39:20 11° SSE
Cosmos 1844 Rocket 2.6 19:31:08 10° SSW 19:36:41 76° ESE 19:42:16 10° NNE
SPOT 1/Viking Rocket 4.2 19:36:09 14° SE 19:40:10 39° ENE 19:44:59 10° N
MetOp-B 4.5 19:36:53 13° SE 19:41:26 51° ENE 19:46:36 10° N
SL-4 R/B 2.5 19:37:48 10° WNW 19:42:08 60° SW 19:45:35 17° SE
Cosmos 1805 Rocket 3.5 19:39:02 10° N 19:43:24 82° E 19:47:34 11° S
Cosmos 1386 Rocket 4.4 19:39:10 10° N 19:45:12 76° E 19:51:17 10° SSE
Cosmos 1354 Rocket 4.4 19:40:29 10° S 19:45:21 42° ESE 19:50:17 10° NE
X-37B 0.6 19:42:16 10° W 19:45:28 85° N 19:47:53 16° E
ARIANE 5 R/B 3.8 19:43:07 16° ESE 19:45:38 26° ENE 19:49:15 10° N
Cosmos 1633 Rocket 3.8 19:47:44 10° N 19:51:51 37° ENE 19:54:17 21° SE
Cosmos 1745 Rocket 4.0 19:46:12 10° N 19:52:27 88° E 19:58:35 10° S
SPOT 3 Rocket 3.5 19:49:01 13° SSE 19:53:38 81° ENE 19:58:48 10° NNW
Cosmos 1437 4.4 19:54:17 16° E 19:54:17 16° E 19:55:43 10° NE
Cosmos 1709 Rocket 4.1 19:49:15 10° N 19:55:16 55° ENE 19:59:47 18° SSE
Resurs 1-3 4.4 19:51:39 10° S 19:55:55 50° W 20:00:12 10° NNW
Landsat 7 3.8 19:52:36 16° SSE 19:56:26 75° ENE 20:01:11 10° N
Cosmos 1844 3.7 19:51:09 10° SSW 19:56:54 88° ESE 20:02:37 10° NNE
Cosmos 1812 4.4 19:56:30 17° E 19:56:56 17° E 19:59:30 10° NE
Cosmos 968 Rocket 4.1 19:52:30 10° SSW 19:57:42 62° WNW 20:02:54 10° NNE
BREEZE-M DEB (TANK) 4.0 19:55:07 10° WNW 19:59:25 79° SSW 20:06:55 14° ESE
ATLAS 5 CENTAUR R/B 2.5 19:55:39 10° NNW 20:01:12 66° NE 20:05:41 21° SE
NOSS 3-3 (A) 4.2 19:56:28 10° S 20:01:46 42° ESE 20:07:41 10° NE
NOSS 3-3 (C) 4.2 19:56:35 10° S 20:01:52 42° ESE 20:07:47 10° NE
Cosmos 1328 Rocket 4.2 19:59:49 22° SE 20:02:08 38° E 20:06:14 10° NNE
Cosmos 1486 Rocket 4.4 19:59:55 10° SSW 20:05:13 67° WNW 20:10:33 10° NNE
IGS 5A 3.6 20:04:31 17° S 20:07:42 73° W 20:11:51 10° NNW
Meteor 1-26 Rocket 4.2 20:02:16 10° S 20:07:49 62° E 20:13:19 10° NNE
CARTOSAT-1 4.2 20:07:02 25° ESE 20:09:00 40° ENE 20:13:03 10° N
Cosmos 2315 Rocket 4.1 20:04:39 12° S 20:10:27 63° E 20:16:45 10° NNE
Cosmos 1833 Rocket 3.8 20:05:44 10° N 20:10:49 32° NE 20:14:00 19° ESE
CRYOSAT 2 4.4 20:07:53 21° SSE 20:11:07 65° E 20:15:59 10° N
S3M 4.3 20:04:52 10° SSW 20:11:14 72° W 20:17:35 10° N
BREEZE-M R/B 2.1 20:10:44 10° WSW 20:13:16 62° NNW 20:15:12 15° ENE
Cosmos 1666 4.2 20:14:03 10° NNE 20:16:51 20° ENE 20:17:20 19° E
Cosmos 1666 Rocket 3.5 20:13:05 10° N 20:17:31 85° E 20:19:57 26° S
Meteor 2-17 Rocket 4.4 20:14:24 10° N 20:20:37 89° E 20:25:05 20° S
Cosmos 1933 3.9 20:17:44 10° SSW 20:21:43 56° W 20:25:42 10° N
USA 245 2.1 20:23:48 67° N 20:23:48 67° N 20:25:49 10° N
Iridium 4 Rocket 4.5 20:22:02 26° SE 20:24:22 37° E 20:29:43 10° NNE
Cosmos 783 Rocket 4.4 20:21:36 10° NNW 20:26:53 79° ENE 20:29:28 31° SSE
Cosmos 1242 Rocket 3.2 20:24:03 12° SSW 20:27:17 53° WNW 20:30:48 10° N
BREEZE M DEB (TANK) 2.8 20:29:01 10° WNW 20:33:13 40° N 20:34:07 28° NE
Resurs 01 Rocket 3.0 20:29:42 12° SSW 20:33:20 35° W 20:37:26 10° NNW
Cosmos 773 Rocket 4.0 20:29:23 10° NNW 20:34:43 73° ENE 20:37:01 34° SE
Spot 2 Rocket 3.4 20:34:12 30° SSE 20:36:46 89° W 20:41:51 10° NNW
SJ 16-02 2.4 20:38:19 28° E 20:38:19 28° E 20:41:49 10° NE
OE (NEXTSAT) 4.4 20:35:40 10° W 20:39:08 76° N 20:39:58 49° E
Cosmos 2228 Rocket 4.4 20:40:06 23° E 20:40:06 23° E 20:43:33 10° NE
DELTA 2 R/B (1) 4.3 20:35:32 10° W 20:40:34 36° SSW 20:41:51 32° S
COSMOS 2406 3.6 20:35:49 10° NNW 20:41:23 53° ENE 20:43:43 32° ESE
Meteor 2-6 Rocket 4.3 20:41:14 35° SSE 20:43:16 54° E 20:48:36 10° NNE
Cosmos 2082 Rocket 3.4 20:39:03 10° N 20:44:02 31° NE 20:46:29 22° E
USA 306 4.4 20:40:33 10° NW 20:44:26 33° NNE 20:47:01 18° ENE
Cosmos 1782 3.4 20:43:16 21° SSW 20:45:47 55° WNW 20:49:43 10° N
Cosmos 1500 3.0 20:42:42 10° N 20:46:29 89° W 20:47:10 58° S
CZ-4C R/B 3.1 20:39:29 10° NW 20:46:41 69° NE 20:51:18 29° SE
ERS-1 Rocket 2.9 20:50:52 40° SSE 20:52:42 85° ENE 20:57:45 10° NNW
SPOT 5 2.9 20:52:52 41° SSE 20:54:40 86° ENE 20:59:56 10° NNW
H-2A R/B 3.5 20:53:32 10° NNE 20:57:40 54° E 20:57:49 53° ESE
Cosmos 1271 Rocket 3.2 21:00:22 46° E 21:00:22 46° E 21:03:56 10° NNE
Meteor 1-11 Rocket 4.2 20:55:08 10° N 21:00:57 49° ENE 21:02:44 38° ESE
Cosmos 1151 Rocket 4.2 20:58:03 15° SW 21:01:18 40° WNW 21:05:26 10° N
Cosmos 1777 Rocket 3.9 20:58:39 27° SSW 21:01:34 90° W 21:06:48 10° NNE
Terra 1.8 21:02:23 51° SE 21:03:30 75° ENE 21:08:17 10° N
Cosmos 2278 Rocket 2.1 21:05:44 35° S 21:08:09 73° ESE 21:13:48 10° NNE
USA 307 4.0 21:05:51 10° NW 21:09:54 40° NNE 21:11:26 29° ENE
Cosmos 1340 Rocket 4.4 21:10:58 10° NNE 21:14:05 23° ENE 21:14:05 23° ENE
Cosmos 1515 Rocket 4.0 21:17:35 39° SW 21:18:56 58° W 21:23:18 10° N
Cosmos 2084 4.0 21:17:53 14° SW 21:21:22 55° NW 21:25:33 10° NNE
ARIANE 5 R/B 3.9 21:20:39 26° SW 21:21:59 31° W 21:25:52 10° NNW
X-37B 2.8 21:18:57 10° W 21:20:09 20° W 21:20:09 20° W
USA 308 3.7 21:19:18 10° NW 21:23:27 46° NNE 21:24:24 39° ENE
Cosmos 1869 Rocket 3.7 21:19:41 10° N 21:23:54 56° ENE 21:23:54 56° ENE
Cosmos 1536 3.4 21:20:15 10° N 21:23:48 45° ENE 21:23:48 45° ENE
Meteor 1-10 Rocket 4.1 21:22:59 45° SSW 21:24:49 87° W 21:30:29 10° N
Cosmos 1943 Rocket 3.8 21:30:25 19° E 21:30:25 19° E 21:33:12 10° NE
Cosmos 2154 Rocket 4.0 21:25:00 10° N 21:31:22 76° E 21:33:02 51° SSE
Cosmos 1812 4.1 21:31:31 30° WSW 21:32:25 34° WNW 21:35:59 10° N
ALOS 2 4.4 21:38:42 20° ENE 21:38:52 20° ENE 21:42:07 10° NNE
Cosmos 2184 Rocket 4.2 21:33:09 10° NNW 21:39:19 66° W 21:41:19 43° SSW
Cosmos 990 Rocket 4.4 21:40:01 47° E 21:40:01 47° E 21:44:40 10° NNE
Cosmos 1707 Rocket 4.4 21:42:54 39° ENE 21:42:54 39° ENE 21:46:15 10° NNE
NOSS 3-4 (A) 3.8 21:37:21 10° NW 21:44:23 81° NE 21:47:02 45° SE
NOSS 3-4 (C) 3.8 21:37:27 10° NW 21:44:29 80° NE 21:47:09 45° SE
ATLAS 5 CENTAUR R/B 3.8 21:40:49 10° WNW 21:45:42 27° WSW 21:47:13 24° SW
Cosmos 2074 Rocket 4.4 21:41:07 10° NNW 21:47:15 56° W 21:49:23 38° SSW
Cosmos 962 Rocket 4.5 21:44:41 10° N 21:50:46 63° ENE 21:51:49 54° ESE
Cosmos 1666 4.3 21:49:12 10° NNW 21:52:11 27° W 21:52:11 27° W
Cosmos 2112 Rocket 4.3 21:47:59 10° NNW 21:53:15 55° ENE 21:53:50 52° E
Nadezhda 1 Rocket 4.0 21:51:52 47° SSW 21:53:49 76° W 22:00:07 10° N
Cosmos 1833 Rocket 3.3 21:49:32 10° NW 21:54:51 43° WSW 21:55:42 40° SW
Cosmos 1238 Rocket 4.2 21:50:56 10° N 21:57:06 50° ENE 21:57:51 47° E
Cosmos 1743 3.7 21:54:04 10° N 21:56:52 43° NNE 21:56:52 43° NNE
ATLAS 2AS CENTAUR R/B 3.0 21:50:41 10° NW 21:58:02 62° NE 22:00:32 40° ESE
USA 215 4.1 21:55:02 15° E 22:00:17 47° NNE 22:06:29 10° NW
Cosmos 2297 4.0 22:03:58 51° E 22:03:58 51° E 22:09:06 10° NE
USA 305 3.4 22:01:18 10° NW 22:04:41 55° NW 22:04:41 55° NW
Cosmos 2181 Rocket 4.2 22:07:22 51° ESE 22:07:53 53° E 22:13:50 10° NNE
SJ 16-02 3.0 22:15:15 25° W 22:16:31 30° WNW 22:20:26 10° N
Cosmos 1733 Rocket 3.6 22:12:30 10° N 22:16:02 54° NNE 22:16:02 54° NNE
Cosmos 2228 Rocket 4.4 22:17:34 32° W 22:18:02 33° WNW 22:22:04 10° N
Meteor 1-27 Rocket 4.4 22:18:37 40° WSW 22:20:14 51° WNW 22:25:59 10° N
Cosmos 1680 Rocket 3.5 22:16:07 10° NNW 22:21:27 77° WSW 22:21:27 77° WSW
Cosmos 2341 Rocket 3.9 22:15:44 10° N 22:22:10 86° W 22:23:08 67° S
Cosmos 2366 rocket 4.0 22:17:14 10° N 22:23:22 63° E 22:24:07 58° ESE
Cosmos 1937 Rocket 3.6 22:24:06 62° ENE 22:24:06 62° ENE 22:28:39 10° NNE
USA 306 4.1 22:20:26 10° WNW 22:23:05 37° WNW 22:23:05 37° WNW
Cosmos 1818 4.2 22:21:21 10° NNW 22:26:41 48° NE 22:27:40 43° E
Cosmos 967 Rocket 4.3 22:27:43 69° SE 22:27:56 70° ESE 22:34:11 10° NE
Cosmos 2082 Rocket 2.7 22:22:56 10° NW 22:28:16 45° WSW 22:28:19 45° WSW
CZ-4C R/B 3.9 22:28:28 10° NW 22:35:07 34° WSW 22:36:28 32° SW
Cosmos 858 Rocket 4.5 22:37:14 77° NE 22:37:14 77° NE 22:42:07 10° NNE
Meteor 1-19 Rocket 4.0 22:40:49 85° ENE 22:40:49 85° ENE 22:46:09 10° NNE
Cosmos 2218 Rocket 3.8 22:35:06 10° N 22:41:24 87° E 22:42:06 73° SSE
Terra 4.2 22:41:15 13° W 22:41:47 13° W 22:43:55 10° WNW
Cosmos 489 Rocket 4.3 22:42:25 10° NNW 22:48:41 79° ENE 22:49:22 70° SE
Cosmos 1461 4.4 22:53:28 33° ENE 22:53:28 33° ENE 22:56:12 10° NE
Cosmos 2278 Rocket 4.3 22:48:34 10° W 22:52:50 21° NW 22:57:08 10° N
Cosmos 1862 Rocket 4.4 22:57:00 46° NW 22:57:00 46° NW 23:00:25 10° N
Cosmos 1898 Rocket 4.2 22:57:39 43° W 22:58:22 46° WNW 23:03:30 10° N
Nadezhda 3 Rocket 4.3 23:02:11 50° ESE 23:02:40 51° E 23:08:41 10° NNE
Cosmos 2369 Rocket 2.4 23:03:27 59° E 23:03:27 59° E 23:08:33 10° NNE
COBE Rocket 4.1 23:07:04 69° NW 23:07:04 69° NW 23:11:44 10° NNW
RESURS DK-1 4.0 23:06:19 10° N 23:09:53 29° NE 23:09:53 29° NE
SL-8 Rocket 4.4 23:04:52 10° NNW 23:10:54 48° W 23:11:34 46° WSW
Cosmos 1943 Rocket 2.3 23:11:55 60° W 23:12:24 63° WNW 23:17:59 10° NNE
Cosmos 1975 4.3 23:09:47 10° NNW 23:12:12 33° NW 23:12:12 33° NW
ALOS 2 3.8 23:16:05 35° WNW 23:16:05 35° WNW 23:19:07 10° NNW
Cosmos 1867 4.3 23:18:57 42° E 23:18:57 42° E 23:23:11 10° NE
SL-08 R/B 4.3 23:12:52 10° N 23:19:06 85° W 23:19:37 76° SSW
Cosmos 1607 4.3 23:19:25 53° ESE 23:19:25 53° ESE 23:25:36 10° NE
DNEPR-1 R/B 4.4 23:19:56 57° W 23:20:33 61° NW 23:25:31 10° NNE
Meteor 2-4 Rocket 3.7 23:20:31 76° WSW 23:20:43 77° W 23:26:26 10° N
Cosmos 44 4.3 23:16:46 10° NW 23:20:48 41° W 23:20:48 41° W
Cosmos 2263 4.3 23:22:38 64° E 23:22:38 64° E 23:28:08 10° NNE
Okean 1-7 3.8 23:30:15 48° N 23:30:15 48° N 23:33:26 10° N
Cosmos 372 Rocket 4.3 23:30:36 57° WNW 23:30:36 57° WNW 23:35:34 10° NNE
ATLAS CENTAUR R/B 3.7 23:33:01 15° ENE 23:33:01 15° ENE 23:33:53 10° NE
Cosmos 1125 Rocket 3.9 23:35:51 53° E 23:35:51 53° E 23:40:28 10° NNE
Sich 1 Rocket 4.4 23:31:34 10° N 23:35:34 46° ENE 23:35:34 46° ENE
SeaSat 1 2.5 23:33:34 10° NNE 23:38:19 73° NW 23:38:19 73° NW
Cosmos 1656 Rocket 3.6 23:39:04 73° E 23:39:04 73° E 23:44:20 10° NNE
Cosmos 2242 Rocket 4.4 23:40:22 45° NW 23:40:22 45° NW 23:43:54 10° N
Cosmos 494 Rocket 4.2 23:34:55 10° NNW 23:40:05 63° ENE 23:40:13 63° ENE
USA 215 3.1 23:42:21 65° S 23:43:06 72° SW 23:49:39 10° NW
Cosmos 2239 Rocket 4.3 23:37:49 10° N 23:44:10 87° W 23:44:52 73° S
Cosmos 1833 4.2 23:41:13 10° NNW 23:47:00 78° ENE 23:47:33 71° ESE
ATLAS 2AS CENTAUR R/B 3.7 23:42:21 10° NW 23:47:56 31° WSW 23:47:56 31° WSW
CZ-2D R/B 3.8 23:48:53 10° NE 23:53:02 22° E 23:53:55 21° ESE
